Find Starlink 4372

NORAD ID: 53233 Int'l Des: 2022-084 Owner: SPXS Country: US Constellation: starlink operational
LEOCIRCULARRETROGRADESSO

当前视图

正在加载3D地球...

About Starlink 4372

Starlink 4372 (NORAD 53233) is a starlink constellation satellite (v1.5) launched Jul 22, 2022 by SPXS of US. It operates in LEO, CIRCULAR, RETROGRADE, SSO orbit with a mass of 297.00 kg.

关于 Starlink 4372

正在加载描述...

即将过境

Passes for default location (London). Set your location on the main map for personalized predictions.

高度历史

Loading altitude history...

两行轨道根数

1 53233U 22084AW 26175.17175497 -.00000037 00000-0 13957-5 0 9995
2 53233 97.3170 233.8086 0002230 118.8051 241.3401 15.05660942215333
Epoch: Jun 24, 2026 • Age: 25 hours

当前状态

高度 551.2 km
速度 7.59 km/s
星下点 5.95°N, 69.95°E
发射日期 Jul 22, 2022
运行时间 3.9 years
类型 internet

技术详情

分类 Payload
质量 297.00 kg
干质量 275.00 kg
总质量 297.00 kg
长度 0.20 m
直径 2.80 m
跨度 9.00 m
形状 Box + pan
制造商 SPXS
平台类型 Starlink
阶段状态 In Orbit
所有者/国家 SPXS/US

Most Searched